When you browse on this site, cookies collect data to enhance your experience and personalize the content and advertising you see.
Visit our Privacy Policy to learn more. By continuing to use the site, you agree to this use of cookies and data.
  • In Romania
  • List of Countries
  • For 7 days
  • Water Temperature
  • Satellite Maps
  • Weather Map
  • Weather Widgets
  • user-avatar
    Login

    Hourly Weather Saint-Medard-en-Jalles

    Today, 25 June, Tuesday

    Time Temperature Precipitation Wind Pressure Humidity
    00:00 +21°C° 0 mm 3 mps 757 mmHg 80%
    01:00 +20°C° 0 mm 3 mps 757 mmHg 85%
    02:00 +20°C° 0 mm 2 mps 757 mmHg 89%
    03:00 +20°C° 0 mm 1 mps 757 mmHg 94%
    04:00 +21°C° 0 mm 1 mps 758 mmHg 93%
    05:00 +22°C° 0 mm 1 mps 758 mmHg 91%
    06:00 +22°C° 0 mm 1 mps 758 mmHg 90%
    07:00 +22°C° 0 mm 0 mps 759 mmHg 82%
    08:00 +24°C° 0 mm 0 mps 759 mmHg 74%
    09:00 +26°C° 0 mm 0 mps 759 mmHg 65%
    10:00 +29°C° 0 mm 1 mps 759 mmHg 60%
    11:00 +30°C° 0 mm 1 mps 759 mmHg 55%
    12:00 +32°C° 0 mm 1 mps 759 mmHg 49%
    13:00 +32°C° 0 mm 2 mps 759 mmHg 49%
    14:00 +32°C° 0 mm 2 mps 759 mmHg 49%
    15:00 +33°C° 0 mm 3 mps 759 mmHg 49%
    16:00 +31°C° 0 mm 3 mps 759 mmHg 54%
    17:00 +31°C° 0 mm 3 mps 759 mmHg 59%
    18:00 +30°C° 0 mm 3 mps 759 mmHg 64%
    19:00 +28°C° 0 mm 3 mps 759 mmHg 68%
    20:00 +27°C° 0 mm 2 mps 759 mmHg 72%
    21:00 +25°C° 0 mm 2 mps 759 mmHg 77%
    22:00 +25°C° 0 mm 2 mps 759 mmHg 78%
    23:00 +24°C° 0 mm 2 mps 759 mmHg 80%

    Tomorrow, 26 June, Wednesday

    Time Temperature Precipitation Wind Pressure Humidity
    00:00 +24°C° 0 mm 2 mps 759 mmHg 81%
    01:00 +23°C° 0 mm 2 mps 759 mmHg 82%
    02:00 +23°C° 0 mm 2 mps 758 mmHg 82%
    03:00 +21°C° 0 mm 2 mps 758 mmHg 83%
    04:00 +23°C° 0 mm 2 mps 758 mmHg 80%
    05:00 +23°C° 0 mm 2 mps 758 mmHg 77%
    06:00 +23°C° 0 mm 2 mps 758 mmHg 75%
    07:00 +25°C° 0 mm 3 mps 758 mmHg 70%
    08:00 +26°C° 0 mm 3 mps 758 mmHg 66%
    09:00 +28°C° 0 mm 3 mps 758 mmHg 61%
    10:00 +29°C° 0 mm 3 mps 758 mmHg 57%
    11:00 +32°C° 0 mm 4 mps 758 mmHg 54%
    12:00 +34°C° 0 mm 4 mps 758 mmHg 50%
    13:00 +35°C° 0 mm 4 mps 757 mmHg 47%
    14:00 +36°C° 0 mm 3 mps 757 mmHg 44%
    15:00 +37°C° 0 mm 3 mps 757 mmHg 41%
    16:00 +37°C° 0 mm 3 mps 757 mmHg 43%
    17:00 +36°C° 0 mm 3 mps 756 mmHg 46%
    18:00 +36°C° 0 mm 2 mps 756 mmHg 49%
    19:00 +34°C° 0 mm 3 mps 757 mmHg 50%
    20:00 +33°C° 0 mm 3 mps 757 mmHg 50%
    21:00 +30°C° 0 mm 4 mps 757 mmHg 51%
    22:00 +28°C° 0 mm 3 mps 758 mmHg 54%
    23:00 +27°C° 0 mm 3 mps 758 mmHg 57%

    Day after tomorrow, 27 June, Thursday

    Time Temperature Precipitation Wind Pressure Humidity
    00:00 +26°C° 0 mm 3 mps 758 mmHg 60%
    01:00 +25°C° 0 mm 2 mps 758 mmHg 63%
    02:00 +24°C° 0 mm 2 mps 758 mmHg 66%
    03:00 +23°C° 0 mm 2 mps 758 mmHg 68%
    04:00 +23°C° 0 mm 2 mps 758 mmHg 71%
    05:00 +24°C° 0 mm 1 mps 759 mmHg 74%
    06:00 +24°C° 0 mm 1 mps 759 mmHg 77%
    07:00 +27°C° 0 mm 1 mps 759 mmHg 70%
    08:00 +29°C° 0 mm 1 mps 759 mmHg 62%
    09:00 +32°C° 0 mm 1 mps 760 mmHg 54%
    10:00 +34°C° 0 mm 1 mps 759 mmHg 49%
    11:00 +37°C° 0 mm 2 mps 759 mmHg 44%
    12:00 +38°C° 0 mm 2 mps 759 mmHg 39%
    13:00 +39°C° 0 mm 3 mps 759 mmHg 38%
    14:00 +39°C° 0 mm 3 mps 758 mmHg 37%
    15:00 +40°C° 0 mm 3 mps 758 mmHg 37%
    16:00 +39°C° 0 mm 3 mps 758 mmHg 40%
    17:00 +38°C° 0 mm 2 mps 757 mmHg 44%
    18:00 +37°C° 0 mm 2 mps 757 mmHg 47%
    19:00 +35°C° 0 mm 2 mps 757 mmHg 52%
    20:00 +32°C° 0 mm 2 mps 757 mmHg 56%
    21:00 +30°C° 0 mm 2 mps 758 mmHg 61%
    22:00 +29°C° 0 mm 2 mps 758 mmHg 62%
    23:00 +29°C° 0 mm 2 mps 758 mmHg 63%

    28 June, Friday

    Time Temperature Precipitation Wind Pressure Humidity
    00:00 +28°C° 0 mm 2 mps 758 mmHg 64%
    01:00 +26°C° 0 mm 3 mps 758 mmHg 69%
    02:00 +25°C° 0 mm 3 mps 758 mmHg 74%
    03:00 +22°C° 0 mm 4 mps 758 mmHg 78%
    04:00 +22°C° 0 mm 4 mps 758 mmHg 80%
    05:00 +21°C° 0 mm 4 mps 759 mmHg 82%
    06:00 +21°C° 0 mm 4 mps 759 mmHg 84%
    07:00 +22°C° 0 mm 3 mps 759 mmHg 79%
    08:00 +24°C° 0 mm 3 mps 759 mmHg 74%
    09:00 +26°C° 0 mm 3 mps 760 mmHg 69%
    10:00 +27°C° 0 mm 3 mps 759 mmHg 64%
    11:00 +28°C° 0 mm 3 mps 759 mmHg 59%
    12:00 +30°C° 0 mm 2 mps 759 mmHg 54%
    13:00 +30°C° 0 mm 2 mps 759 mmHg 53%
    14:00 +31°C° 0 mm 2 mps 759 mmHg 52%
    15:00 +31°C° 0 mm 2 mps 759 mmHg 51%
    16:00 +30°C° 0 mm 2 mps 758 mmHg 57%
    17:00 +28°C° 0 mm 3 mps 758 mmHg 64%
    18:00 +26°C° 0 mm 3 mps 758 mmHg 70%
    19:00 +25°C° 0 mm 3 mps 758 mmHg 77%
    20:00 +23°C° 0 mm 2 mps 759 mmHg 83%
    21:00 +20°C° 0 mm 2 mps 759 mmHg 89%
    22:00 +20°C° 0 mm 2 mps 759 mmHg 90%
    23:00 +19°C° 0 mm 2 mps 759 mmHg 91%

    29 June, Saturday

    Time Temperature Precipitation Wind Pressure Humidity
    00:00 +19°C° 0 mm 2 mps 758 mmHg 93%
    01:00 +19°C° 0 mm 2 mps 758 mmHg 94%
    02:00 +19°C° 0 mm 2 mps 758 mmHg 95%
    03:00 +19°C° 0 mm 2 mps 758 mmHg 96%
    04:00 +19°C° 0 mm 2 mps 758 mmHg 94%
    05:00 +19°C° 0 mm 2 mps 758 mmHg 93%
    06:00 +19°C° 0 mm 2 mps 758 mmHg 91%
    07:00 +21°C° 0 mm 2 mps 758 mmHg 85%
    08:00 +23°C° 0 mm 2 mps 759 mmHg 79%
    09:00 +24°C° 0 mm 2 mps 759 mmHg 72%
    10:00 +25°C° 0 mm 3 mps 759 mmHg 69%
    11:00 +26°C° 0 mm 3 mps 759 mmHg 65%
    12:00 +27°C° 0 mm 3 mps 759 mmHg 62%
    13:00 +27°C° 0 mm 3 mps 759 mmHg 61%
    14:00 +28°C° 0 mm 3 mps 759 mmHg 61%
    15:00 +28°C° 0 mm 3 mps 759 mmHg 60%
    16:00 +26°C° 0 mm 3 mps 759 mmHg 64%
    17:00 +25°C° 0 mm 3 mps 759 mmHg 69%
    18:00 +24°C° 0 mm 3 mps 759 mmHg 73%
    19:00 +22°C° 0 mm 3 mps 759 mmHg 80%
    20:00 +20°C° 0 mm 2 mps 759 mmHg 86%
    21:00 +19°C° 0 mm 2 mps 760 mmHg 92%
    22:00 +19°C° 0 mm 2 mps 760 mmHg 92%
    23:00 +18°C° 0 mm 2 mps 760 mmHg 91%

    30 June, Sunday

    Time Temperature Precipitation Wind Pressure Humidity
    00:00 +18°C° 0 mm 2 mps 760 mmHg 91%
    01:00 +18°C° 0.1 mm 2 mps 760 mmHg 90%
    02:00 +19°C° 0.1 mm 1 mps 760 mmHg 89%
    03:00 +17°C° 0.1 mm 0 mps 760 mmHg 88%
    04:00 +18°C° 0 mm 0 mps 760 mmHg 87%
    05:00 +20°C° 0 mm 1 mps 760 mmHg 86%
    06:00 +20°C° 0 mm 1 mps 760 mmHg 85%
    07:00 +22°C° 0 mm 1 mps 760 mmHg 80%
    08:00 +22°C° 0 mm 0 mps 761 mmHg 74%
    09:00 +23°C° 0 mm 0 mps 761 mmHg 69%
    10:00 +25°C° 0 mm 0 mps 761 mmHg 65%
    11:00 +29°C° 0 mm 1 mps 760 mmHg 60%
    12:00 +30°C° 0 mm 1 mps 760 mmHg 56%
    13:00 +30°C° 0 mm 1 mps 760 mmHg 55%
    14:00 +31°C° 0 mm 2 mps 760 mmHg 54%
    15:00 +31°C° 0 mm 2 mps 759 mmHg 53%
    16:00 +30°C° 0 mm 2 mps 759 mmHg 58%
    17:00 +29°C° 0 mm 3 mps 759 mmHg 63%
    18:00 +28°C° 0 mm 3 mps 759 mmHg 68%
    19:00 +27°C° 0 mm 3 mps 759 mmHg 70%
    20:00 +25°C° 0 mm 3 mps 759 mmHg 71%
    21:00 +22°C° 0 mm 3 mps 759 mmHg 72%
    22:00 +23°C° 0 mm 2 mps 759 mmHg 74%
    23:00 +23°C° 0 mm 2 mps 759 mmHg 75%
    Show more